[[{"header":{"parameterUnit":"m.s-1","parameterCategory":2,"la1":30.2992,"la2":30.254,"lo1":-89.0895,"lo2":-89.0443,"dy":0.0025,"dx":0.0025,"nx":19,"ny":19,"refTime":"2026-05-04T09:00:00:Z","depth":"0","parameterNumber":2,"parameterNumberName":"U-component_of_CURRENTS"},"data":[0,0,0,0.1183,0.1184,0.1257,0.1258,0.1461,0.1463,0,0,0,0,0,0,0,0,0,0,0,0.1164,0.1164,0.1183,0.1184,0.1257,0.1258,0.1461,0.1463,0,0,0,0,0,0,0,0,0,0,0,0.1164,0.1164,0.1164,0.1184,0.1257,0.1258,0.146,0.1382,0,0,0,0,0,0,0,0,0,0,0.1299,0.1264,0.1164,0.1164,0.1185,0.1257,0.1258,0.1377,0.1387,0.1454,0,0.1457,0,0.1459,0.1478,0.1478,0,0,0,0.1201,0.1255,0.1267,0.1164,0.1185,0.1257,0.1229,0.1382,0.1393,0.1468,0.146,0.1467,0.1462,0.1479,0.148,0.1791,0.1792,0,0,0.1197,0.1192,0.1259,0.1274,0.1197,0.1226,0.1231,0.1387,0.1404,0.1461,0.1471,0.1466,0.1481,0.1482,0.1789,0.1791,0,0,0,0.1174,0.1189,0.1195,0.1266,0.1267,0.1228,0.1233,0.1397,0.1396,0.1473,0.1468,0.1482,0.1484,0.1787,0.179,0.1821,0,0,0,0.1172,0.1174,0.1193,0.1193,0.1263,0.1319,0.124,0.1386,0.1403,0.1467,0.1482,0.1487,0.1785,0.1789,0.1816,0.1806,0,0,0,0.1162,0.1174,0.1177,0.1192,0.1214,0.1315,0.1324,0.1389,0.14,0.1479,0.1487,0.1784,0.1788,0.1811,0.18,0.1837,0,0,0,0.1162,0.1203,0.1177,0.1242,0.1213,0.1327,0.1323,0.1424,0.1498,0.1483,0.1785,0.179,0.181,0.1796,0.1834,0.1682,0.1686,0,0,0.1221,0.121,0.1255,0.1233,0.1346,0.1319,0.1463,0.1545,0.159,0.174,0.1746,0.1817,0.1799,0.1836,0.1925,0.1921,0,0,0,0.128,0.1307,0.1345,0.1393,0.1452,0.1517,0.1575,0.1635,0.1777,0.1647,0.1895,0.1884,0.1905,0.1809,0.1808,0.1642,0.1809,0.1809,0.1808,0.1345,0.1379,0.1467,0.1518,0.1584,0.1676,0.1763,0.1861,0.1872,0.196,0.1967,0.2094,0.1998,0.1994,0.1828,0.2048,0.2048,0.2048,0.2048,0.1453,0.1517,0.1542,0.1632,0.1687,0.1789,0.1939,0.1975,0.2115,0.2096,0.2115,0.1919,0.1994,0.1817,0.2051,0.2051,0.205,0.205,0.205,0.1513,0.1552,0.1572,0.1673,0.1763,0.1848,0.1975,0.2069,0.2143,0.2188,0.2061,0.2058,0.1846,0.2179,0.2179,0.2179,0.218,0.218,0.218,0.1576,0.1603,0.1658,0.1737,0.1778,0.1865,0.1996,0.2071,0.2091,0.2087,0.2086,0.1882,0.2134,0.2064,0.2183,0.2182,0.2182,0.2181,0.2181,0.1714,0.1675,0.1761,0.1793,0.187,0.1881,0.1993,0.2001,0.2056,0.2032,0.1784,0.2048,0.2014,0.2013,0.1943,0.2024,0.2024,0.2024,0.2024,0.1779,0.178,0.1842,0.1877,0.1916,0.1901,0.1844,0.1814,0.1717,0.1589,0.163,0.1541,0.1555,0.149,0.1502,0.1421,0.1367,0.1366,0.1365,0.1872,0.187,0.191,0.1904,0.1921,0.1864,0.1705,0.1491,0.131,0.1328,0.1435,0.1463,0.1326,0.1361,0.1254,0.1283,0.1149,0,0]},{"header":{"parameterUnit":"m.s-1","parameterCategory":2,"la1":30.2992,"la2":30.254,"lo1":-89.0895,"lo2":-89.0443,"dy":0.0025,"dx":0.0025,"nx":19,"ny":19,"refTime":"2026-05-04T09:00:00:Z","depth":"0","parameterNumber":3,"parameterNumberName":"V-component_of_CURRENTS"},"data":[0,0,0,0.0121,0.0121,0.0148,0.0148,0.0391,0.0394,0,0,0,0,0,0,0,0,0,0,0,0.0125,0.0125,0.0121,0.0121,0.0148,0.0148,0.0391,0.0394,0,0,0,0,0,0,0,0,0,0,0,0.0125,0.0125,0.0125,0.0121,0.0148,0.0148,0.039,0.0323,0,0,0,0,0,0,0,0,0,0,0.0273,0.0227,0.0125,0.0125,0.0121,0.0148,0.0148,0.0318,0.0327,0.0433,0,0.0427,0,0.0408,0.0413,0.0414,0,0,0,0.0141,0.0218,0.0233,0.0125,0.0121,0.0147,0.0142,0.0321,0.0333,0.0446,0.043,0.0438,0.0412,0.0415,0.0416,0.078,0.0781,0,0,0.014,0.0133,0.0224,0.0239,0.0122,0.014,0.0142,0.0326,0.0337,0.0431,0.0442,0.0416,0.0417,0.0419,0.0778,0.078,0,0,0,0.0122,0.0131,0.0137,0.0231,0.0215,0.0141,0.0143,0.0328,0.0331,0.0444,0.0419,0.0418,0.0422,0.0776,0.0779,0.0824,0,0,0,0.0122,0.012,0.0136,0.0133,0.0209,0.0239,0.0141,0.0319,0.0338,0.0418,0.0418,0.0425,0.0774,0.0777,0.0819,0.0829,0,0,0,0.0125,0.012,0.0121,0.0132,0.0133,0.0235,0.0248,0.0321,0.0324,0.0414,0.0425,0.0772,0.0777,0.0814,0.0822,0.0894,0,0,0,0.012,0.0113,0.0121,0.0119,0.0132,0.0203,0.0246,0.0309,0.0382,0.042,0.0774,0.0778,0.0812,0.0817,0.0889,0.0844,0.0862,0,0,0.0107,0.0111,0.0113,0.0119,0.0169,0.02,0.0339,0.044,0.05,0.0727,0.0734,0.0821,0.0821,0.0893,0.1096,0.1106,0,0,0,0.0107,0.0109,0.0126,0.0154,0.0211,0.0352,0.0428,0.0525,0.0722,0.0559,0.0897,0.0898,0.0939,0.0906,0.0916,0.0947,0.0799,0.0798,0.0798,0.0097,0.0124,0.0168,0.0235,0.0312,0.0477,0.062,0.0794,0.0809,0.0926,0.0992,0.1154,0.1123,0.1129,0.1165,0.1063,0.1063,0.1063,0.1064,0.011,0.0158,0.0234,0.0285,0.0456,0.0601,0.0872,0.0937,0.117,0.114,0.1178,0.1027,0.1142,0.1176,0.1068,0.1067,0.1067,0.1066,0.1066,0.0106,0.0155,0.0177,0.0325,0.0519,0.0712,0.0964,0.1113,0.1217,0.1291,0.1245,0.1242,0.122,0.1295,0.1295,0.1296,0.1296,0.1296,0.1296,0.0134,0.017,0.0259,0.0398,0.0528,0.0742,0.1019,0.1154,0.1272,0.131,0.131,0.1307,0.1225,0.1155,0.1303,0.1302,0.1301,0.13,0.13,0.0201,0.0214,0.0336,0.0443,0.0715,0.0891,0.1083,0.1264,0.1371,0.1407,0.1401,0.1341,0.132,0.1311,0.1246,0.1409,0.1409,0.1409,0.1409,0.0276,0.0283,0.0471,0.0636,0.0843,0.0993,0.1179,0.1304,0.1413,0.144,0.1468,0.1406,0.14,0.138,0.137,0.1306,0.148,0.148,0.1481,0.0394,0.042,0.057,0.0691,0.0911,0.1066,0.1188,0.128,0.1406,0.149,0.1533,0.153,0.1442,0.1429,0.1394,0.1377,0.1269,0,0]}],[{"header":{"parameterUnit":"m.s-1","parameterCategory":2,"la1":30.2992,"la2":30.254,"lo1":-89.0895,"lo2":-89.0443,"dy":0.0025,"dx":0.0025,"nx":19,"ny":19,"refTime":"2026-05-04T09:00:00:Z","depth":"2","parameterNumber":2,"parameterNumberName":"U-component_of_CURRENTS"},"data":[0,0,0,0.1163,0.1164,0.1245,0.1245,0.1447,0.1449,0,0,0,0,0,0,0,0,0,0,0,0.1143,0.1144,0.1163,0.1165,0.1244,0.1245,0.1447,0.1449,0,0,0,0,0,0,0,0,0,0,0,0.1143,0.1143,0.1144,0.1165,0.1244,0.1245,0.1446,0.1366,0,0,0,0,0,0,0,0,0,0,0.1278,0.1242,0.1143,0.1144,0.1165,0.1244,0.1245,0.1361,0.1371,0.1433,0,0.1438,0,0.144,0.1463,0.1464,0,0,0,0.1184,0.1234,0.1247,0.1144,0.1165,0.1244,0.1214,0.1366,0.1377,0.1447,0.144,0.1447,0.1443,0.1464,0.1465,0.1774,0.1776,0,0,0.1179,0.1173,0.1238,0.1253,0.1179,0.1211,0.1216,0.1372,0.1388,0.1441,0.1451,0.1446,0.1466,0.1467,0.1773,0.1775,0,0,0,0.1154,0.117,0.1178,0.1246,0.1248,0.1213,0.1219,0.1381,0.1381,0.1453,0.1449,0.1467,0.147,0.1771,0.1773,0.1806,0,0,0,0.1152,0.1153,0.1175,0.1175,0.1243,0.1302,0.1225,0.1371,0.1387,0.1448,0.1467,0.1472,0.1769,0.1772,0.1801,0.1791,0,0,0,0.1141,0.1153,0.1156,0.1174,0.1198,0.1299,0.1309,0.1374,0.1385,0.1464,0.1472,0.1767,0.1772,0.1796,0.1785,0.182,0,0,0,0.114,0.1184,0.1157,0.1225,0.1197,0.1313,0.1307,0.1411,0.1486,0.1468,0.1769,0.1773,0.1795,0.1781,0.1816,0.1638,0.164,0,0,0.1202,0.1191,0.1238,0.1215,0.1332,0.1304,0.1451,0.1534,0.1577,0.1723,0.173,0.1802,0.1784,0.1819,0.1887,0.1881,0,0,0,0.1264,0.1292,0.1331,0.1381,0.144,0.1505,0.1564,0.1624,0.1766,0.1635,0.1882,0.187,0.189,0.1778,0.1776,0.1794,0.1793,0.1793,0.1792,0.1332,0.1366,0.1456,0.1507,0.1574,0.1667,0.1755,0.1852,0.1862,0.1952,0.1956,0.2085,0.1972,0.1966,0.2038,0.2039,0.2039,0.2039,0.2039,0.1442,0.1506,0.1531,0.1623,0.1678,0.178,0.193,0.1967,0.2107,0.2088,0.2105,0.1893,0.1964,0.2043,0.2042,0.2042,0.2041,0.2041,0.2041,0.1503,0.1541,0.1563,0.1664,0.1755,0.1839,0.1967,0.2062,0.2135,0.2181,0.2034,0.203,0.2042,0.217,0.2171,0.2171,0.2171,0.2171,0.2171,0.1565,0.1593,0.1649,0.1728,0.177,0.1857,0.1987,0.2061,0.2069,0.2058,0.2057,0.2128,0.2124,0.2052,0.2174,0.2173,0.2173,0.2173,0.2173,0.1702,0.1663,0.1752,0.1785,0.1862,0.1864,0.1982,0.1975,0.2026,0.1992,0.2003,0.2006,0.1968,0.1969,0.1896,0.1969,0.1969,0.1969,0.1969,0.1765,0.1766,0.1832,0.187,0.1908,0.1883,0.1798,0.1681,0.1695,0.162,0.1635,0.1552,0.1568,0.1504,0.1515,0.1431,0.1384,0.1383,0.1382,0.1855,0.1857,0.19,0.1897,0.1913,0.1839,0.1623,0.1271,0.1138,0.1359,0.1531,0.193,0.1847,0.1857,0.1788,0.1795,0.1672,0,0]},{"header":{"parameterUnit":"m.s-1","parameterCategory":2,"la1":30.2992,"la2":30.254,"lo1":-89.0895,"lo2":-89.0443,"dy":0.0025,"dx":0.0025,"nx":19,"ny":19,"refTime":"2026-05-04T09:00:00:Z","depth":"2","parameterNumber":3,"parameterNumberName":"V-component_of_CURRENTS"},"data":[0,0,0,0.004,0.0039,0.007,0.007,0.0304,0.0306,0,0,0,0,0,0,0,0,0,0,0,0.0043,0.0043,0.004,0.0039,0.007,0.007,0.0303,0.0306,0,0,0,0,0,0,0,0,0,0,0,0.0042,0.0043,0.0043,0.0039,0.007,0.007,0.0303,0.0237,0,0,0,0,0,0,0,0,0,0,0.0185,0.0141,0.0043,0.0043,0.0039,0.0069,0.007,0.0232,0.0241,0.0339,0,0.0335,0,0.0317,0.0324,0.0325,0,0,0,0.006,0.0132,0.0147,0.0043,0.0039,0.0069,0.0062,0.0235,0.0246,0.0353,0.0338,0.0345,0.0321,0.0326,0.0328,0.068,0.0682,0,0,0.0059,0.0051,0.0139,0.0153,0.0042,0.0061,0.0063,0.024,0.025,0.0339,0.0349,0.0325,0.0328,0.033,0.0678,0.0681,0,0,0,0.004,0.005,0.0056,0.0145,0.013,0.0061,0.0063,0.0242,0.0246,0.0352,0.0328,0.033,0.0333,0.0676,0.0679,0.073,0,0,0,0.004,0.0037,0.0055,0.0052,0.0125,0.0156,0.0062,0.0234,0.0252,0.0326,0.033,0.0336,0.0674,0.0678,0.0724,0.0734,0,0,0,0.0042,0.0037,0.0039,0.0051,0.0053,0.0151,0.0164,0.0236,0.0238,0.0326,0.0336,0.0673,0.0677,0.0719,0.0727,0.0801,0,0,0,0.0037,0.0032,0.0039,0.0038,0.0052,0.0121,0.0162,0.0225,0.0297,0.0331,0.0675,0.0679,0.0717,0.0722,0.0796,0.0736,0.0754,0,0,0.0026,0.003,0.0032,0.0038,0.0087,0.0118,0.0255,0.0354,0.0412,0.0629,0.0636,0.0726,0.0726,0.08,0.0988,0.0997,0,0,0,0.0026,0.003,0.0046,0.0073,0.0129,0.0266,0.0341,0.0438,0.0632,0.0469,0.0801,0.0801,0.0845,0.0801,0.0811,0.07,0.0699,0.0699,0.0698,0.002,0.0045,0.0088,0.0152,0.0227,0.039,0.0532,0.0703,0.0716,0.0835,0.0898,0.1064,0.1023,0.1028,0.0969,0.0969,0.097,0.097,0.097,0.0032,0.0076,0.0151,0.0201,0.0369,0.0512,0.0779,0.0846,0.1079,0.1048,0.1088,0.0926,0.1041,0.0976,0.0975,0.0974,0.0973,0.0973,0.0973,0.0027,0.0073,0.0097,0.0241,0.0433,0.0623,0.0874,0.1024,0.1128,0.1204,0.1149,0.1146,0.1051,0.1211,0.1212,0.1212,0.1213,0.1213,0.1213,0.0048,0.0085,0.0176,0.0312,0.0442,0.0657,0.0932,0.1068,0.1182,0.1216,0.1216,0.1146,0.1138,0.1069,0.122,0.1219,0.1218,0.1217,0.1217,0.0105,0.0124,0.0251,0.036,0.0632,0.0802,0.0997,0.1176,0.1283,0.1315,0.1245,0.1242,0.1217,0.1209,0.1144,0.1306,0.1306,0.1306,0.1306,0.0173,0.0182,0.0383,0.0556,0.0762,0.0903,0.1072,0.1138,0.1205,0.1173,0.1179,0.1094,0.1094,0.1057,0.1052,0.0981,0.1101,0.1101,0.11,0.0279,0.0317,0.0477,0.0613,0.0832,0.0975,0.1053,0.1002,0.0977,0.109,0.1117,0.1297,0.1183,0.1179,0.1126,0.1117,0.1005,0,0]}],[{"header":{"parameterUnit":"m.s-1","parameterCategory":2,"la1":30.2992,"la2":30.254,"lo1":-89.0895,"lo2":-89.0443,"dy":0.0025,"dx":0.0025,"nx":19,"ny":19,"refTime":"2026-05-04T09:00:00:Z","depth":"4","parameterNumber":2,"parameterNumberName":"U-component_of_CURRENTS"},"data":[0,0,0,0.0312,0.0309,0.0207,0.0206,0.0364,0.0366,0,0,0,0,0,0,0,0,0,0,0,0.0363,0.0362,0.0312,0.0309,0.0207,0.0206,0.0364,0.0366,0,0,0,0,0,0,0,0,0,0,0,0.0363,0.0363,0.0362,0.0308,0.0207,0.0206,0.0363,0.0373,0,0,0,0,0,0,0,0,0,0,0.0438,0.0441,0.0363,0.0362,0.0308,0.0207,0.0206,0.037,0.0372,0.0488,0,0.0463,0,0.0413,0.0382,0.0383,0,0,0,0.0324,0.0439,0.0403,0.0362,0.0307,0.0207,0.0257,0.0369,0.0372,0.0493,0.0465,0.0468,0.0415,0.0383,0.0385,0.049,0.049,0,0,0.033,0.0362,0.04,0.0404,0.0276,0.026,0.0254,0.0368,0.0382,0.0465,0.047,0.0418,0.0385,0.0387,0.0491,0.049,0,0,0,0.0336,0.0367,0.0322,0.0401,0.0355,0.0257,0.025,0.0377,0.0359,0.0471,0.042,0.0386,0.0389,0.0492,0.0491,0.0518,0,0,0,0.034,0.0368,0.0325,0.0346,0.0351,0.0325,0.0257,0.0351,0.036,0.0419,0.0387,0.0392,0.0492,0.0491,0.0519,0.0565,0,0,0,0.0369,0.0371,0.0354,0.0347,0.0291,0.032,0.0308,0.035,0.0331,0.0383,0.0392,0.0493,0.0491,0.052,0.0565,0.0605,0,0,0,0.0412,0.0293,0.0355,0.022,0.0292,0.017,0.0306,0.0266,0.0293,0.0388,0.0492,0.0491,0.052,0.0564,0.0604,0.0472,0,0,0,0.0258,0.0277,0.0188,0.0238,0.0097,0.0186,0.0152,0.0268,0.0323,0.0481,0.0481,0.0519,0.0565,0.0605,0.0387,0,0,0,0,0.0134,0.0085,0.0043,0.0,-0.0033,0.0088,0.0145,0.0231,0.0369,0.0329,0.0481,0.051,0.0535,0.0451,0.0484,0.0484,0.0484,0.0484,0.0484,0.0004,-0.0022,-0.0104,-0.0097,-0.0092,0.0025,0.0126,0.0279,0.0318,0.0386,0.0503,0.0516,0.0421,0.045,0.045,0.0451,0.0451,0.0451,0.0451,-0.0169,-0.0201,-0.0106,-0.017,0.0009,0.0078,0.0263,0.0336,0.0496,0.0504,0.0526,0.0447,0.0452,0.0452,0.0452,0.0452,0.0452,0.0451,0.0451,-0.0265,-0.0257,-0.0223,-0.0122,0.0051,0.0215,0.0344,0.0475,0.0552,0.0585,0.0503,0.0549,0.0583,0.0595,0.0595,0.0596,0.0596,0.0596,0.0596,-0.0316,-0.029,-0.0202,-0.0064,0.0069,0.0232,0.0419,0.0457,0.0553,0.0541,0.0608,0.0566,0.0561,0.0591,0.0602,0.0601,0.06,0.06,0.0599,-0.0456,-0.0335,-0.0259,-0.0134,0.0099,0.0176,0.0335,0.0416,0.0459,0.0475,0.0511,0.0513,0.0507,0.0505,0.0533,0.0527,0.0526,0.0524,0,-0.0465,-0.0427,-0.0266,-0.0133,-0.0015,0.0116,0.012,0.0187,0.0336,0.0342,0.041,0.0444,0.0447,0.043,0.0426,0.0451,0,0,0,-0.0455,-0.0412,-0.033,-0.0195,-0.0068,0.0008,0.0106,0.0137,0.0344,0.034,0.0484,0.0495,0.0432,0.0618,0.0617,0.0611,0.066,0,0]},{"header":{"parameterUnit":"m.s-1","parameterCategory":2,"la1":30.2992,"la2":30.254,"lo1":-89.0895,"lo2":-89.0443,"dy":0.0025,"dx":0.0025,"nx":19,"ny":19,"refTime":"2026-05-04T09:00:00:Z","depth":"4","parameterNumber":3,"parameterNumberName":"V-component_of_CURRENTS"},"data":[0,0,0,-0.0226,-0.0226,-0.0222,-0.0222,-0.0176,-0.0176,0,0,0,0,0,0,0,0,0,0,0,-0.0234,-0.0234,-0.0226,-0.0226,-0.0222,-0.0222,-0.0176,-0.0176,0,0,0,0,0,0,0,0,0,0,0,-0.0234,-0.0234,-0.0234,-0.0226,-0.0222,-0.0222,-0.0176,-0.019,0,0,0,0,0,0,0,0,0,0,-0.0199,-0.0211,-0.0234,-0.0234,-0.0226,-0.0222,-0.0222,-0.0191,-0.0189,-0.0166,0,-0.017,0,-0.0167,-0.0171,-0.0171,0,0,0,-0.0228,-0.0213,-0.021,-0.0234,-0.0226,-0.0222,-0.0224,-0.019,-0.0188,-0.0163,-0.0169,-0.0167,-0.0166,-0.0171,-0.0171,-0.0134,-0.0134,0,0,-0.0228,-0.0232,-0.0212,-0.0209,-0.0229,-0.0224,-0.0224,-0.0189,-0.0189,-0.0169,-0.0166,-0.0165,-0.0171,-0.017,-0.0134,-0.0134,0,0,0,-0.0228,-0.0232,-0.0231,-0.0211,-0.021,-0.0224,-0.0224,-0.019,-0.019,-0.0166,-0.0165,-0.017,-0.017,-0.0134,-0.0134,-0.009,0,0,0,-0.0228,-0.0231,-0.0231,-0.0233,-0.0212,-0.0205,-0.0225,-0.0193,-0.0189,-0.0165,-0.017,-0.0169,-0.0134,-0.0134,-0.0091,-0.0028,0,0,0,-0.0233,-0.0231,-0.0233,-0.0233,-0.023,-0.0206,-0.0204,-0.0192,-0.0187,-0.0171,-0.0169,-0.0134,-0.0134,-0.0092,-0.0032,0.0056,0,0,0,-0.0234,-0.0193,-0.0233,-0.017,-0.023,-0.0152,-0.0204,-0.0182,-0.0167,-0.017,-0.0134,-0.0134,-0.0092,-0.0034,0.0053,-0.0005,0,0,0,-0.017,-0.0186,-0.014,-0.0174,-0.0058,-0.0153,-0.0092,-0.013,-0.0164,-0.0142,-0.0142,-0.0091,-0.0032,0.0055,-0.0015,0,0,0,0,-0.0109,-0.0066,-0.0039,0.0012,0.0027,0.0006,-0.0037,-0.0081,-0.0122,-0.0156,-0.0106,-0.007,-0.0016,-0.0062,-0.0135,-0.0135,-0.0135,-0.0135,-0.0135,-0.0031,0.0013,0.0108,0.0155,0.0172,0.0108,0.0076,-0.0002,-0.0047,-0.0089,-0.0048,0.0035,-0.0018,-0.0087,-0.0087,-0.0086,-0.0086,-0.0086,-0.0086,0.0115,0.0179,0.0206,0.0303,0.0259,0.0259,0.0167,0.0085,0.0074,-0.0012,0.0037,-0.0031,-0.0082,-0.0083,-0.0083,-0.0084,-0.0084,-0.0085,-0.0085,0.0216,0.0238,0.0294,0.0375,0.037,0.029,0.0264,0.0205,0.0144,0.0169,0.0139,0.0097,0.0114,0.0187,0.0187,0.0188,0.0188,0.0189,0.0189,0.0246,0.0314,0.0381,0.0437,0.0434,0.0393,0.0331,0.03,0.0255,0.0223,0.0198,0.0129,0.012,0.013,0.0199,0.0197,0.0196,0.0195,0.0195,0.0332,0.0342,0.0452,0.0482,0.0472,0.043,0.0417,0.0345,0.0356,0.0341,0.0259,0.0253,0.0255,0.0244,0.0259,0.0369,0.0368,0.0368,0,0.0331,0.0366,0.0473,0.0527,0.0479,0.0443,0.0371,0.0321,0.0313,0.0327,0.0326,0.0233,0.0228,0.0223,0.0213,0.0227,0,0,0,0.0322,0.037,0.0436,0.0524,0.0466,0.0368,0.0322,0.0294,0.0373,0.0303,0.0358,0.0361,0.0165,0.0229,0.0219,0.0208,0.0226,0,0]}]]